Location: Munderkingen
(48.2395°N, 9.6433°E)
Time: 06:14:35
(UTC+01:00)

ISS - Pass Details

Date: 11 November 2017
Orbit: 402 x 407 km, 51.6° (Epoch: 23 November)

Event Time Altitude Azimuth Distance (km) Brightness Sun altitude
Exits shadow 06:42:19 - 291° (WNW) 1,509 -1.6 -7.0°
Reaches altitude 10° 06:42:26 10° 291° (WNW) 1,458 -1.7 -7.0°
Maximum altitude 06:45:42 76° 206° (SSW) 418 -3.8 -6.5°
Drops below altitude 10° 06:48:57 10° 120° (ESE) 1,453 0.7 -6.0°
Sets 06:51:01 0° 118° (ESE) 2,310 2.4 -5.7°
